This is the latest recevied weather packets stored in our database for station/object KS5S. If no packets are shown the sender has not sent any weather packets the latest 10 day(s).
| Time | Temp. | Humidity | Pressure | Rain* | Wind** | Luminosity | Snow |
|---|---|---|---|---|---|---|---|
| 1777707801 | 10.56° C | 92% | 1017 hPa | 0 mm | - | 0 W/m² | - |
| 1777707496 | 11.11° C | 92% | 1017.3 hPa | 0 mm | - | 0 W/m² | - |
| 1777707193 | 11.11° C | 93% | 1017 hPa | 0 mm | - | 0 W/m² | - |
| 1777706891 | 11.11° C | 93% | 1017.3 hPa | 0 mm | - | 0 W/m² | - |
| 1777706588 | 11.11° C | 94% | 1017.2 hPa | 0 mm | - | 0 W/m² | - |
| 1777706285 | 10.56° C | 95% | 1017.4 hPa | 0 mm | - | 0 W/m² | - |
| 1777705983 | 10.56° C | 95% | 1017.4 hPa | 0 mm | - | 0 W/m² | - |
| 1777705681 | 10.56° C | 95% | 1017.4 hPa | 0 mm | - | 0 W/m² | - |
| 1777705379 | 10.56° C | 94% | 1017.2 hPa | 0 mm | - | 0 W/m² | - |
| 1777705077 | 11.11° C | 94% | 1017.4 hPa | 0 mm | - | 0 W/m² | - |
| 1777704775 | 11.11° C | 93% | 1017.5 hPa | 0 mm | - | 0 W/m² | - |
| 1777704473 | 11.11° C | 93% | 1017 hPa | 0 mm | - | 0 W/m² | - |
| 1777704170 | 11.11° C | 92% | 1017.2 hPa | 0 mm | - | 0 W/m² | - |
| 1777703867 | 11.67° C | 93% | 1017.4 hPa | 0 mm | - | 0 W/m² | - |
| 1777703565 | 11.67° C | 92% | 1017.2 hPa | 0 mm | - | 0 W/m² | - |
| 1777703262 | 11.67° C | 91% | 1017.3 hPa | 0 mm | - | 0 W/m² | - |
| 1777702959 | 11.67° C | 91% | 1017.5 hPa | 0 mm | - | 0 W/m² | - |
| 1777702658 | 11.67° C | 92% | 1017.2 hPa | 0 mm | - | 0 W/m² | - |
| 1777702356 | 11.67° C | 91% | 1017.4 hPa | 0 mm | - | 0 W/m² | - |
| 1777702050 | 11.67° C | 91% | 1017.3 hPa | 0 mm | - | 0 W/m² | - |
| 1777701746 | 11.67° C | 91% | 1017.3 hPa | 0 mm | - | 0 W/m² | - |
| 1777701444 | 11.67° C | 90% | 1017.4 hPa | 0 mm | - | 0 W/m² | - |
| 1777701142 | 12.22° C | 89% | 1017.3 hPa | 0 mm | - | 0 W/m² | - |
| 1777700836 | 12.22° C | 89% | 1017.4 hPa | 0 mm | - | 0 W/m² | - |
| 1777700533 | 12.78° C | 88% | 1017.5 hPa | 0 mm | - | 0 W/m² | - |
* Rain latest hour (hover to see other rain measurements)
** Current wind speed in m/s (hover to see current wind gust speed)